Location: Fayetteville
(35.0530°N, 78.8790°W)
Time: 02:25:05
(UTC-04:00)

ISS - Visible Passes

Search period start: 02 October 2014 00:00
Search period end: 12 October 2014 00:00
Orbit: 413 x 416 km, 51.6° (Epoch: 01 October)

Date Brightness Start Highest point End Pass type
(mag) Time Alt. Az. Time Alt. Az. Time Alt. Az.
02 Oct -0.3 04:52:11 16° E 04:52:11 16° E 04:53:01 10° ESE visible
02 Oct -1.7 06:25:07 15° W 06:26:30 19° SW 06:28:57 10° S visible
03 Oct -1.5 05:39:05 22° S 05:39:05 22° S 05:40:35 10° SSE visible
03 Oct -0.5 20:37:39 10° SSW 20:37:44 11° SSW 20:37:44 11° SSW visible
04 Oct -1.5 19:49:27 10° SSE 19:51:36 16° SE 19:51:36 16° SE visible
05 Oct -2.7 20:35:29 10° SW 20:38:12 55° WSW 20:38:12 55° WSW visible
06 Oct -3.1 19:46:23 10° SSW 19:49:37 53° SE 19:51:40 20° ENE visible
06 Oct 0.2 21:24:16 10° WNW 21:24:33 11° WNW 21:24:33 11° WNW visible
07 Oct -1.4 20:34:14 10° W 20:37:06 26° NW 20:37:49 24° NNW visible
08 Oct -2.3 19:44:31 10° WSW 19:47:44 45° NW 19:50:54 10° NE visible
09 Oct -0.4 20:33:57 10° NW 20:35:30 13° NNW 20:36:42 11° N visible
10 Oct -0.8 19:43:31 10° WNW 19:45:58 19° NNW 19:48:24 10° NNE visible
